| time (UTC) | temp F | wind direction | speed knots | gust knots | rain 1hr in | rain 24hr in | rain mn in | humidity % | barometer mb |
| 20260509150019 | 63 | 229 | 3.5 | 9.6 | 0.00 | 0.00 | 0.00 | 60 | 1003.9 |
| 20260509143005 | 62 | 249 | 0.9 | 7.8 | 0.00 | 0.00 | 0.00 | 67 | 1003.9 |
| 20260509141508 | 61 | 200 | 2.6 | 8.7 | 0.00 | 0.00 | 0.00 | 69 | 1003.9 |
| 20260509140013 | 59 | 262 | 2.6 | 10.4 | 0.00 | 0.00 | 0.00 | 71 | 1003.8 |
| 20260509134506 | 59 | 185 | 1.7 | 9.6 | 0.00 | 0.00 | 0.00 | 72 | 1003.6 |
| 20260509131504 | 58 | 284 | 1.7 | 7.0 | 0.00 | 0.00 | 0.00 | 76 | 1003.7 |
| 20260509130013 | 57 | 180 | 1.7 | 9.6 | 0.00 | 0.00 | 0.00 | 78 | 1003.8 |
| 20260509124511 | 55 | 243 | 2.6 | 7.8 | 0.00 | 0.00 | 0.00 | 80 | 1003.6 |
| 20260509123004 | 54 | 253 | 0.9 | 8.7 | 0.00 | 0.00 | 0.00 | 81 | 1003.9 |
| 20260509121514 | 54 | 171 | 1.7 | 9.6 | 0.00 | 0.00 | 0.00 | 81 | 1003.9 |
| 20260509120014 | 54 | 242 | 1.7 | 10.4 | 0.00 | 0.00 | 0.00 | 82 | 1003.7 |
| 20260509114507 | 54 | 241 | 0.9 | 8.7 | 0.00 | 0.00 | 0.00 | 82 | 1003.6 |
| 20260509113006 | 53 | 202 | 2.6 | 10.4 | 0.00 | 0.00 | 0.00 | 82 | 1003.3 |
| 20260509111504 | 54 | 213 | 0.9 | 7.8 | 0.00 | 0.00 | 0.00 | 82 | 1003.2 |
| 20260509110005 | 54 | 258 | 1.7 | 8.7 | 0.00 | 0.00 | 0.00 | 82 | 1003.3 |
| 20260509104504 | 54 | 251 | 0.9 | 5.2 | 0.00 | 0.00 | 0.00 | 82 | 1003.1 |
| 20260509103018 | 53 | 220 | 0.9 | 6.1 | 0.00 | 0.00 | 0.00 | 84 | 1002.9 |
| 20260509101531 | 53 | 165 | 1.7 | 5.2 | 0.00 | 0.00 | 0.00 | 85 | 1003.0 |
| 20260509100012 | 53 | 193 | 0.9 | 4.3 | 0.00 | 0.00 | 0.00 | 85 | 1003.1 |
| 20260509094513 | 53 | 249 | 1.7 | 5.2 | 0.00 | 0.00 | 0.00 | 85 | 1003.4 |
| 20260509093008 | 53 | 197 | 0.9 | 6.1 | 0.00 | 0.00 | 0.00 | 85 | 1003.8 |
| 20260509091506 | 53 | 193 | 0.9 | 5.2 | 0.00 | 0.00 | 0.00 | 84 | 1003.8 |
| 20260509090005 | 53 | 212 | 0.9 | 8.7 | 0.00 | 0.00 | 0.00 | 84 | 1003.6 |
| 20260509084527 | 53 | 180 | 2.6 | 5.2 | 0.00 | 0.00 | 0.00 | 84 | 1003.9 |
| 20260509083018 | 53 | 202 | 0.9 | 4.3 | 0.00 | 0.00 | 0.00 | 83 | 1003.8 |
| 20260509080017 | 53 | 175 | 0.9 | 4.3 | 0.00 | 0.00 | 0.00 | 82 | 1003.8 |
| 20260509074512 | 53 | 230 | 0.0 | 5.2 | 0.00 | 0.00 | 0.00 | 82 | 1003.9 |
| 20260509073010 | 54 | 180 | 0.9 | 4.3 | 0.00 | 0.00 | 0.00 | 81 | 1004.0 |
| 20260509071508 | 54 | 204 | 0.9 | 3.5 | 0.00 | 0.00 | 0.00 | 80 | 1004.3 |
| 20260509070004 | 54 | 168 | 1.7 | 7.0 | 0.00 | 0.00 | 0.00 | 80 | 1004.6 |
| 20260509064504 | 54 | 239 | 0.9 | 3.5 | 0.00 | 0.00 | 0.00 | 80 | 1004.7 |
| 20260509063004 | 55 | 189 | 1.7 | 4.3 | 0.00 | 0.00 | 0.00 | 80 | 1004.8 |
| 20260509061521 | 55 | 203 | 0.9 | 5.2 | 0.00 | 0.00 | 0.00 | 79 | 1005.0 |
| 20260509060015 | 55 | 202 | 0.9 | 4.3 | 0.00 | 0.00 | 0.00 | 78 | 1005.2 |
| 20260509054512 | 56 | 262 | 0.9 | 5.2 | 0.00 | 0.00 | 0.00 | 78 | 1005.3 |
| 20260509053015 | 56 | 268 | 0.9 | 6.1 | 0.00 | 0.00 | 0.00 | 77 | 1005.4 |
| 20260509051508 | 56 | 239 | 1.7 | 4.3 | 0.00 | 0.00 | 0.00 | 76 | 1005.2 |
| 20260509050018 | 56 | 239 | 0.9 | 9.6 | 0.00 | 0.00 | 0.00 | 75 | 1005.3 |
| 20260509044506 | 56 | 258 | 0.9 | 7.0 | 0.00 | 0.00 | 0.00 | 74 | 1005.1 |
| 20260509043025 | 55 | 223 | 0.9 | 5.2 | 0.00 | 0.00 | 0.00 | 74 | 1005.5 |
| 20260509041523 | 54 | 209 | 0.9 | 3.5 | 0.00 | 0.00 | 0.00 | 74 | 1005.2 |
| 20260509040033 | 53 | 144 | 0.0 | 3.5 | 0.00 | 0.00 | 0.00 | 74 | 1005.3 |
| 20260509034518 | 53 | 202 | 0.0 | 3.5 | 0.00 | 0.00 | 0.00 | 74 | 1005.5 |
| 20260509033015 | 52 | 167 | 0.0 | 2.6 | 0.00 | 0.00 | 0.00 | 75 | 1005.4 |
| 20260509030009 | 51 | 141 | 0.0 | 0.0 | 0.00 | 0.00 | 0.00 | 73 | 1005.6 |
| 20260509024525 | 52 | 141 | 0.0 | 1.7 | 0.00 | 0.00 | 0.00 | 72 | 1005.7 |
| 20260509023026 | 53 | 138 | 0.0 | 1.7 | 0.00 | 0.00 | 0.00 | 71 | 1005.9 |
| 20260509021521 | 53 | 111 | 0.0 | 1.7 | 0.00 | 0.00 | 0.00 | 69 | 1006.0 |
| 20260509020018 | 53 | 87 | 0.0 | 0.0 | 0.00 | 0.00 | 0.00 | 67 | 1006.1 |
| 20260509013016 | 54 | 116 | 0.0 | 0.9 | 0.00 | 0.00 | 0.00 | 64 | 1006.1 |
| 20260509011515 | 55 | 87 | 0.0 | 1.7 | 0.00 | 0.00 | 0.00 | 62 | 1006.0 |
| 20260509010030 | 55 | 71 | 0.0 | 1.7 | 0.00 | 0.00 | 0.00 | 60 | 1006.0 |
| 20260509004524 | 56 | 31 | 0.0 | 2.6 | 0.00 | 0.00 | 0.00 | 57 | 1006.0 |
| 20260509003024 | 57 | 71 | 0.9 | 4.3 | 0.00 | 0.00 | 0.00 | 56 | 1006.0 |
| 20260509000021 | 58 | 43 | 0.0 | 6.1 | 0.00 | 0.00 | 0.00 | 55 | 1006.1 |
| 20260508234517 | 58 | 52 | 0.0 | 3.5 | 0.00 | 0.00 | 0.00 | 55 | 1006.4 |
| 20260508233003 | 60 | 156 | 0.9 | 7.0 | 0.00 | 0.00 | 0.00 | 51 | 1006.4 |
| 20260508231503 | 61 | 154 | 0.9 | 7.8 | 0.00 | 0.00 | 0.00 | 52 | 1006.5 |
| 20260508230010 | 61 | 19 | 0.0 | 5.2 | 0.00 | 0.00 | 0.00 | 51 | 1006.5 |
| 20260508223009 | 62 | 52 | 1.7 | 7.0 | 0.00 | 0.00 | 0.00 | 48 | 1006.7 |
| 20260508221506 | 59 | 55 | 1.7 | 6.1 | 0.00 | 0.00 | 0.00 | 52 | 1006.8 |
| 20260508220018 | 61 | 216 | 0.9 | 7.0 | 0.00 | 0.00 | 0.00 | 50 | 1006.9 |
| 20260508214504 | 61 | 277 | 1.7 | 9.6 | 0.00 | 0.00 | 0.00 | 50 | 1007.0 |
| 20260508213004 | 63 | 61 | 0.9 | 7.8 | 0.00 | 0.00 | 0.00 | 49 | 1007.1 |
| 20260508211520 | 61 | 69 | 1.7 | 7.8 | 0.00 | 0.01 | 0.00 | 49 | 1007.2 |
| 20260508210012 | 63 | 160 | 1.7 | 9.6 | 0.00 | 0.01 | 0.00 | 47 | 1007.2 |
| 20260508204518 | 63 | 41 | 1.7 | 7.8 | 0.00 | 0.01 | 0.00 | 43 | 1007.3 |
| 20260508203006 | 65 | 57 | 2.6 | 10.4 | 0.00 | 0.01 | 0.00 | 41 | 1007.4 |
| 20260508201505 | 65 | 84 | 2.6 | 7.8 | 0.00 | 0.01 | 0.00 | 39 | 1007.7 |
| 20260508191520 | 66 | 68 | 1.7 | 7.8 | 0.00 | 0.01 | 0.00 | 33 | 1008.1 |
| 20260508190015 | 65 | 283 | 0.9 | 7.0 | 0.00 | 0.01 | 0.00 | 34 | 1008.3 |
| 20260508184519 | 66 | 63 | 3.5 | 10.4 | 0.00 | 0.01 | 0.00 | 32 | 1008.6 |
| 20260508183010 | 66 | 46 | 1.7 | 11.3 | 0.00 | 0.01 | 0.00 | 32 | 1008.7 |
| 20260508181508 | 66 | 60 | 2.6 | 7.8 | 0.00 | 0.01 | 0.00 | 32 | 1008.8 |
| 20260508180010 | 67 | 89 | 2.6 | 10.4 | 0.00 | 0.01 | 0.00 | 32 | 1009.0 |
| 20260508174511 | 65 | 49 | 3.5 | 8.7 | 0.00 | 0.01 | 0.00 | 34 | 1009.3 |
| 20260508173021 | 66 | 191 | 1.7 | 6.1 | 0.00 | 0.01 | 0.00 | 37 | 1009.6 |
| 20260508171520 | 66 | 20 | 1.7 | 7.0 | 0.00 | 0.01 | 0.00 | 36 | 1009.8 |
| 20260508170014 | 65 | 97 | 2.6 | 8.7 | 0.00 | 0.01 | 0.00 | 36 | 1009.9 |
| 20260508164512 | 65 | 20 | 1.7 | 7.8 | 0.00 | 0.01 | 0.00 | 36 | 1010.1 |
| 20260508163020 | 64 | 63 | 0.9 | 6.1 | 0.00 | 0.01 | 0.00 | 41 | 1010.4 |
| 20260508154523 | 61 | 72 | 0.9 | 3.5 | 0.00 | 0.01 | 0.00 | 38 | 1010.7 |
| 20260508153024 | 61 | 90 | 0.0 | 5.2 | 0.00 | 0.01 | 0.00 | 45 | 1010.9 |
| 20260508151525 | 58 | 270 | 0.9 | 2.6 | 0.00 | 0.01 | 0.00 | 60 | 1011.1 |